Marion Reef Observation History
Time Wind Speed Temp Pressure Rel. Hum Rain
30/10:00am ESE 21-23 kts 27.3°c 1012.8 hPa n/a n/a
30/09:30am ESE 21-24 kts 26.9°c 1012.8 hPa n/a n/a
30/09:00am SE 20-23 kts 27.0°c 1012.8 hPa n/a n/a
30/08:30am ESE 21-24 kts 27.0°c 1012.9 hPa n/a n/a
30/08:00am SE 20-24 kts 27.0°c 1012.9 hPa n/a n/a
30/07:30am SE 22-25 kts 26.8°c 1012.7 hPa n/a n/a
30/07:00am SE 20-23 kts 26.6°c 1012.1 hPa n/a n/a
30/06:30am SE 21-24 kts 26.7°c 1011.7 hPa n/a n/a
30/06:00am SE 21-25 kts 26.8°c 1011.5 hPa n/a n/a
30/05:30am SE 19-22 kts 27.0°c 1011.4 hPa n/a n/a
30/05:00am SE 21-23 kts 27.0°c 1011.0 hPa n/a n/a
30/04:30am SSE 19-22 kts 26.9°c 1010.8 hPa n/a n/a
30/04:00am SE 18-20 kts 26.8°c 1010.8 hPa n/a n/a
30/03:30am SE 19-22 kts 27.0°c 1011.0 hPa n/a n/a
30/03:00am SE 19-22 kts 27.0°c 1011.1 hPa n/a n/a
30/02:30am SE 19-22 kts 27.0°c 1011.4 hPa n/a n/a
30/02:00am SE 20-24 kts 26.3°c 1011.6 hPa n/a n/a
30/01:30am SE 19-22 kts 26.8°c 1011.8 hPa n/a n/a
30/01:00am SE 19-23 kts 26.8°c 1012.0 hPa n/a n/a
30/12:30am SE 20-23 kts 26.9°c 1012.3 hPa n/a n/a
30/12:00am SE 20-23 kts 27.0°c 1012.5 hPa n/a n/a
Time Wind Speed Temp Pressure Rel. Hum Rain
29/11:30pm SE 21-24 kts 26.9°c 1012.6 hPa n/a n/a
29/11:00pm SE 21-24 kts 27.1°c 1012.8 hPa n/a n/a
29/10:30pm SE 21-25 kts 27.2°c 1013.0 hPa n/a n/a
29/10:00pm SE 22-25 kts 27.0°c 1013.3 hPa n/a n/a
29/09:30pm SE 22-25 kts 27.2°c 1013.4 hPa n/a n/a
29/09:00pm SE 20-24 kts 27.4°c 1013.2 hPa n/a n/a
29/08:30pm SE 21-25 kts 27.2°c 1012.9 hPa n/a n/a
29/08:15pm SE 20-23 kts 27.3°c 1012.8 hPa n/a n/a
29/08:00pm ESE 19-23 kts 26.8°c 1012.7 hPa n/a n/a
29/07:44pm SE 22-25 kts 26.3°c 1012.6 hPa n/a n/a
29/07:30pm SE 20-23 kts 27.2°c 1012.6 hPa n/a n/a
29/07:00pm SE 16-19 kts 26.3°c 1012.2 hPa n/a n/a
29/06:30pm ESE 19-21 kts 25.5°c 1012.0 hPa n/a n/a
29/06:00pm ESE 20-23 kts 26.1°c 1011.7 hPa n/a n/a
29/05:58pm ESE 20-23 kts 26.5°c 1011.7 hPa n/a n/a
29/05:30pm SE 20-23 kts 26.9°c 1011.3 hPa n/a n/a
29/05:00pm SE 20-23 kts 26.8°c 1011.1 hPa n/a n/a
29/04:30pm SE 20-25 kts 26.6°c 1010.8 hPa n/a n/a
29/04:00pm SE 21-24 kts 26.4°c 1010.6 hPa n/a n/a
29/03:30pm SE 19-22 kts 26.6°c 1010.4 hPa n/a n/a
29/03:00pm SE 21-24 kts 26.6°c 1010.3 hPa n/a n/a
29/02:44pm SE 21-26 kts 26.2°c 1010.0 hPa n/a n/a
29/02:30pm ESE 21-25 kts 27.0°c 1010.3 hPa n/a n/a
29/02:00pm ESE 20-24 kts 26.7°c 1010.3 hPa n/a n/a
29/01:30pm ESE 20-25 kts 26.8°c 1010.5 hPa n/a n/a
29/01:00pm ESE 20-23 kts 27.2°c 1010.8 hPa n/a n/a
29/12:30pm ESE 21-25 kts 27.1°c 1011.1 hPa n/a n/a
29/12:13pm ESE 20-25 kts 27.0°c 1011.0 hPa n/a n/a
29/12:00pm SE 18-23 kts 26.2°c 1011.5 hPa n/a n/a
29/11:30am SE 18-21 kts 26.5°c 1011.9 hPa n/a n/a
29/11:00am ESE 22-25 kts 26.0°c 1012.2 hPa n/a n/a
29/10:40am ESE 20-31 kts 25.8°c 1012.5 hPa n/a n/a
29/10:30am ESE 19-22 kts 26.4°c 1012.5 hPa n/a n/a
29/10:00am ESE 20-28 kts 26.1°c 1012.6 hPa n/a n/a
29/09:30am SE 19-24 kts 26.0°c 1012.7 hPa n/a n/a
29/09:00am SE 20-23 kts 27.0°c 1012.7 hPa n/a n/a
29/08:30am ESE 22-25 kts 26.8°c 1012.7 hPa n/a n/a
29/08:00am SE 18-21 kts 26.8°c 1012.5 hPa n/a n/a
29/07:30am ESE 19-22 kts 26.9°c 1012.1 hPa n/a n/a
29/07:00am ESE 21-25 kts 27.0°c 1011.8 hPa n/a n/a
29/06:30am SE 21-24 kts 27.1°c 1011.4 hPa n/a n/a
29/06:00am SE 21-23 kts 27.1°c 1011.0 hPa n/a n/a
29/05:30am SE 18-22 kts 27.0°c 1010.8 hPa n/a n/a
29/05:00am SE 19-21 kts 27.1°c 1010.6 hPa n/a n/a
29/04:30am SE 19-21 kts 27.2°c 1010.6 hPa n/a n/a
29/04:00am SE 18-21 kts 27.0°c 1010.3 hPa n/a n/a
29/03:30am SE 19-21 kts 27.0°c 1010.1 hPa n/a n/a
29/03:00am SE 18-22 kts 27.0°c 1010.2 hPa n/a n/a
29/02:30am SE 18-21 kts 27.0°c 1010.5 hPa n/a n/a
29/02:00am SE 18-21 kts 26.9°c 1010.8 hPa n/a n/a
29/01:30am SE 19-22 kts 27.0°c 1011.1 hPa n/a n/a
29/01:00am SE 20-22 kts 27.1°c 1011.4 hPa n/a n/a
29/12:30am SE 20-23 kts 27.1°c 1011.7 hPa n/a n/a
29/12:00am SE 21-24 kts 27.2°c 1011.9 hPa n/a n/a
Time Wind Speed Temp Pressure Rel. Hum Rain
28/11:30pm SE 21-23 kts 27.1°c 1012.2 hPa n/a n/a
28/11:00pm ESE 22-25 kts 27.2°c 1012.2 hPa n/a n/a
28/10:30pm ESE 22-25 kts 27.3°c 1012.3 hPa n/a n/a
28/10:00pm ESE 22-26 kts 27.3°c 1012.4 hPa n/a n/a
28/09:30pm ESE 21-25 kts 27.2°c 1012.3 hPa n/a n/a
28/09:00pm ESE 20-23 kts 27.3°c 1012.3 hPa n/a n/a
28/08:30pm SE 19-23 kts 27.5°c 1012.4 hPa n/a n/a
28/08:00pm SE 20-24 kts 27.4°c 1012.0 hPa n/a n/a
28/07:38pm SE 15-24 kts 26.9°c 1011.9 hPa n/a n/a
28/07:30pm SSE 11-14 kts 26.1°c 1012.0 hPa n/a n/a
28/07:00pm S 15-18 kts 25.3°c 1011.7 hPa n/a n/a
28/06:30pm SSE 17-19 kts 25.1°c 1011.5 hPa n/a n/a
28/06:00pm SE 21-24 kts 25.2°c 1011.2 hPa n/a n/a
28/05:30pm ESE 23-26 kts 25.6°c 1010.6 hPa n/a n/a
28/05:00pm ESE 21-24 kts 25.9°c 1010.5 hPa n/a n/a
28/04:30pm ESE 19-21 kts 26.4°c 1010.2 hPa n/a n/a
28/04:00pm ESE 20-23 kts 25.9°c 1010.2 hPa n/a n/a
28/03:30pm ESE 20-25 kts 26.9°c 1010.2 hPa n/a n/a
28/03:00pm SE 18-20 kts 27.1°c 1010.3 hPa n/a n/a
28/02:30pm SE 16-18 kts 26.9°c 1010.5 hPa n/a n/a
28/02:00pm SE 18-21 kts 26.5°c 1010.9 hPa n/a n/a
28/01:30pm SE 19-25 kts 26.2°c 1011.1 hPa n/a n/a
28/01:00pm SE 18-20 kts 27.4°c 1011.3 hPa n/a n/a
28/12:30pm SE 17-20 kts 27.0°c 1011.7 hPa n/a n/a
28/12:00pm SE 18-21 kts 27.3°c 1011.9 hPa n/a n/a
28/11:30am SE 18-20 kts 27.1°c 1012.3 hPa n/a n/a
28/11:00am SE 19-21 kts 27.1°c 1012.6 hPa n/a n/a
28/10:30am SE 20-23 kts 27.0°c 1012.7 hPa n/a n/a
28/10:00am SE 18-21 kts 27.1°c 1012.7 hPa n/a n/a
28/09:30am ESE 19-22 kts 26.8°c 1012.5 hPa n/a n/a
28/09:00am SE 20-23 kts 27.2°c 1012.5 hPa n/a n/a
28/08:30am SE 19-23 kts 27.2°c 1012.3 hPa n/a n/a
28/08:00am SE 20-23 kts 27.3°c 1012.1 hPa n/a n/a
28/07:30am SE 20-24 kts 27.2°c 1011.8 hPa n/a n/a
28/07:00am SE 21-25 kts 27.1°c 1011.5 hPa n/a n/a
28/06:30am SE 22-25 kts 27.0°c 1011.4 hPa n/a n/a
28/06:00am SE 21-24 kts 26.8°c 1011.2 hPa n/a n/a
28/05:30am SE 22-25 kts 26.9°c 1011.2 hPa n/a n/a
28/05:00am SE 23-26 kts 26.9°c 1011.0 hPa n/a n/a
28/04:30am SE 21-26 kts 26.9°c 1011.0 hPa n/a n/a
28/04:00am SE 22-26 kts 27.3°c 1011.0 hPa n/a n/a
28/03:30am SE 21-25 kts 27.3°c 1010.9 hPa n/a n/a
28/03:00am ESE 22-25 kts 27.5°c 1010.8 hPa n/a n/a
28/02:30am ESE 22-25 kts 27.3°c 1011.0 hPa n/a n/a
28/02:00am ESE 23-27 kts 27.4°c 1011.3 hPa n/a n/a
28/01:30am ESE 21-24 kts 27.5°c 1011.6 hPa n/a n/a
28/01:00am ESE 22-25 kts 27.7°c 1011.9 hPa n/a n/a
28/12:30am ESE 19-24 kts 27.6°c 1012.0 hPa n/a n/a
28/12:00am ESE 19-23 kts 27.6°c 1012.4 hPa n/a n/a